Weather History for Ogden Hill AFB, UT

Change the Weather History Date:

Tuesday, November 6, 2012

  Actual Average Record
Temperature  
Mean Temperature 52 °F -  
Max Temperature 62 °F 46 °F 69 °F (1999)
Min Temperature 41 °F 32 °F 21 °F (1996)
Degree Days  
Heating Degree Days 14    
Growing Degree Days 2 (Base 50)    
Moisture  
Dew Point 35 °F    
Average Humidity 55    
Maximum Humidity 69    
Minimum Humidity 39    
Precipitation  
Precipitation 0.00 in - - ()
Sea Level Pressure  
Sea Level Pressure 30.22 in    
Wind  
Wind Speed 12 mph (ESE)    
Max Wind Speed 18 mph    
Max Gust Speed -    
Visibility 10 miles    
Events      
Averages and records for this station are not official NWS values.
T = Trace of Precipitation, MM = Missing Value Source: NWS Daily Summary

Daily Weather History Graph

Daily Weather History Graph

Search for Another Location

Airport:

Trip Planner

Search our weather history database for the weather conditions in past years. The results will help you decide how hot, cold, wet, or windy it might be!

Date:

Astronomy

Nov. 06, 2012 Rise Set
Actual Time 7:05 AM MST 5:16 PM MST
Civil Twilight 6:36 AM MST 5:45 PM MST
Nautical Twilight 6:03 AM MST 6:18 PM MST
Astronomical Twilight 5:31 AM MST 6:50 PM MST
Moon No Moon Rise 12:59 PM MST (11/6)
Length of Visible Light 11h 09m
Length of Day
10h 11m
Waning Gibbous, 52% of the Moon is Illuminated
Nov 6
Waning Gibbous
Nov 6
Last Quarter
Nov 13
New
Nov 20
First Quarter
Nov 28
Full

Hourly Weather History & Observations

Time (MST) Temp. Windchill Dew Point Humidity Pressure Visibility Wind Dir Wind Speed Gust Speed Precip Events Conditions
12:55 AM 45.5 °F 38.6 °F 33.8 °F 64% 30.28 in 10.0 mi ESE 16.1 mph - N/A   Clear
1:55 AM 45.5 °F 38.9 °F 33.8 °F 64% 30.28 in 10.0 mi ESE 15.0 mph - N/A   Clear
2:55 AM 44.2 °F 37.6 °F 33.3 °F 65% 30.29 in 10.0 mi ESE 13.8 mph - N/A   Clear
3:55 AM 44.2 °F 37.3 °F 33.3 °F 65% 30.27 in 10.0 mi ESE 15.0 mph - N/A   Clear
4:55 AM 43.7 °F 36.6 °F 32.9 °F 66% 30.28 in 10.0 mi ESE 15.0 mph - N/A   Clear
5:55 AM 41.7 °F 33.7 °F 32.4 °F 69% 30.29 in 10.0 mi ESE 16.1 mph - N/A   Clear
6:55 AM 41.9 °F 34.0 °F 32.2 °F 68% 30.29 in 10.0 mi ESE 16.1 mph - N/A   Clear
7:55 AM 41.9 °F 33.7 °F 31.8 °F 67% 30.32 in 10.0 mi ESE 17.3 mph - N/A   Partly Cloudy
8:55 AM 45.9 °F 38.5 °F 32.9 °F 61% 30.32 in 10.0 mi ESE 18.4 mph - N/A   Clear
9:55 AM 49.8 °F - 34.0 °F 55% 30.30 in 10.0 mi ESE 13.8 mph - N/A   Clear
10:55 AM 54.7 °F - 35.6 °F 49% 30.27 in 10.0 mi East 9.2 mph - N/A   Clear
11:55 AM 58.3 °F - 35.1 °F 42% 30.25 in 7.0 mi Calm Calm - N/A   Clear
12:55 PM 60.1 °F - 36.0 °F 41% 30.20 in 10.0 mi WNW 3.5 mph - N/A   Clear
1:55 PM 62.2 °F - 37.0 °F 39% 30.18 in 10.0 mi Calm Calm - N/A   Clear
2:55 PM 62.1 °F - 37.4 °F 40% 30.16 in 10.0 mi Calm Calm - N/A   Clear
3:55 PM 62.4 °F - 37.9 °F 40% 30.15 in 10.0 mi Calm Calm - N/A   Clear
4:55 PM 61.0 °F - 38.8 °F 44% 30.15 in 10.0 mi NNW 4.6 mph - N/A   Clear
5:55 PM 56.8 °F - 39.2 °F 52% 30.15 in 10.0 mi North 5.8 mph - N/A   Clear
6:55 PM 53.2 °F - 39.4 °F 59% 30.16 in 10.0 mi Calm Calm - N/A   Clear
7:55 PM 52.2 °F - 34.9 °F 52% 30.17 in 10.0 mi ESE 11.5 mph - N/A   Clear
8:55 PM 51.1 °F - 33.6 °F 51% 30.14 in 10.0 mi ESE 13.8 mph - N/A   Clear
9:55 PM 51.1 °F - 33.4 °F 51% 30.13 in 10.0 mi ESE 12.7 mph - N/A   Clear
10:55 PM 49.1 °F - 32.5 °F 53% 30.10 in 10.0 mi ESE 13.8 mph - N/A   Clear
11:55 PM 48.4 °F - 31.3 °F 52% 30.09 in 10.0 mi ESE 13.8 mph - N/A   Clear